Wetbulb
32.50 33.49 33.80 32.87 32.57 32.88 30.62 31.38 27.44 30.42 30.23 33.55 36.49 37.84 40.21 42.12 42.84 42.40 40.90 39.47 38.94 37.29 36.79 36.18 35.41 35.56 35.09 34.01 33.56 34.01 33.51 33.18 32.06 32.02 32.23 31.99 31.76 31.75 31.57 31.89 31.46 31.31 30.76 30.07
31.15 34.64 34.72 31.98 34.28 34.37 32.99 33.17 32.44 32.92 32.00 38.60 39.73 41.29 41.48 43.08 42.42 42.73 41.87 40.03 38.02 36.58 35.99 35.26 34.69 34.23 34.09 33.42 33.46 34.23 33.10 31.66 31.69 31.67 31.52 31.09 30.99 30.74 30.90 30.65 30.51 30.13 29.36 28.92
28.78 34.79 34.00 31.71 35.49 36.77 35.54 35.51 34.12 30.71 34.96 39.09 39.06 40.44 41.61 42.38 43.17 44.07 44.36 39.96 37.61 36.47 35.81 34.69 34.51 34.44 33.32 33.19 33.51 32.93 31.88 31.52 31.38 31.23 30.55 30.37 30.25 30.25 29.91 29.60 29.58 28.82 28.36 27.90
29.78 33.07 27.39 37.68 42.32 39.88 37.86 37.40 37.65 37.48 38.74 39.83 40.60 42.30 43.14 42.36 42.93 45.30 43.43 40.14 38.32 37.17 35.31 34.54 34.52 33.87 32.97 33.20 32.74 31.94 31.29 30.93 31.04 30.64 29.63 29.59 29.63 29.32 29.01 29.04 28.48 28.08 27.48 27.04
30.93 30.69 33.79 36.30 37.35 37.94 37.27 36.77 39.82 38.41 39.74 41.05 42.43 40.76 39.67 41.53 43.61 44.50 43.31 41.04 39.31 37.75 35.36 34.46 33.67 33.49 32.61 31.98 31.79 31.36 30.60 30.45 30.18 30.03 29.05 29.02 28.63 28.51 28.16 28.08 27.40 26.81 26.71 26.17
32.46 28.96 26.46 34.34 38.54 40.52 40.02 33.12 40.52 41.13 40.35 40.46 41.30 38.01 38.56 38.68 42.56 42.55 41.79 39.86 37.11 36.06 35.13 33.77 33.20 33.52 32.37 31.09 31.28 30.28 30.04 29.46 29.73 29.62 29.07 28.42 28.35 27.56 26.92 26.66 26.44 26.51 26.27 26.53
32.50 32.11 31.47 37.09 38.33 39.14 30.35 33.58 39.43 41.50 41.43 41.09 41.04 38.86 37.96 38.48 38.27 40.32 39.35 37.12 36.31 35.64 34.24 32.71 33.28 33.26 31.24 31.03 29.57 29.32 29.44 29.30 28.86 28.51 27.78 27.79 27.09 26.75 25.90 25.57 25.34 25.00 25.50 26.19
33.72 30.46 26.03 37.69 37.78 34.04 36.69 37.72 38.81 38.72 41.52 41.93 37.46 35.41 34.98 35.09 35.32 35.93 34.71 33.89 33.43 32.17 31.42 32.40 33.26 32.55 30.30 27.94 28.43 29.10 28.65 27.40 26.85 27.66 28.50 27.59 26.89 26.24 25.31 24.70 24.34 24.11 24.51 25.69
33.68 32.94 38.05 38.48 38.77 39.10 38.60 37.46 36.84 37.24 37.74 38.18 35.53 33.41 32.92 31.75 31.49 31.97 31.77 31.30 31.90 30.65 29.71 30.36 31.93 31.58 27.58 26.90 28.36 27.37 26.55 25.80 25.96 26.43 26.50 26.91 26.46 25.72 25.46 24.22 23.76 23.83 24.32 24.47
36.58 37.86 38.19 38.62 38.54 37.64 37.67 36.78 36.44 36.57 35.77 35.16 31.88 31.63 30.45 30.57 30.42 30.28 30.56 29.94 30.55 29.82 28.24 26.87 28.46 28.67 28.01 27.54 27.29 26.38 25.22 25.20 25.54 25.47 24.80 24.84 25.47 25.84 24.98 24.11 23.79 24.42 24.60 24.64
35.52 37.84 37.80 37.58 37.45 37.22 36.96 36.99 35.68 34.85 33.98 32.53 32.14 30.46 30.01 29.06 29.17 29.58 29.67 29.90 29.88 28.13 26.52 25.81 26.93 26.22 26.63 26.26 26.57 25.12 24.77 24.94 24.73 24.42 24.25 24.16 24.41 24.55 25.48 25.57 25.87 26.22 25.92 25.59
35.66 39.34 38.48 37.43 38.45 38.37 37.43 36.26 35.89 34.52 33.26 33.45 32.71 30.75 30.46 29.12 29.30 28.79 27.82 27.91 26.74 26.18 25.53 25.02 25.27 24.68 24.84 25.63 26.16 25.31 24.63 24.76 24.48 23.88 23.45 23.67 23.39 23.69 26.85 28.20 28.82 28.94 28.71 27.88
39.48 38.09 38.07 38.62 39.14 38.95 37.08 36.75 36.47 35.14 34.17 32.08 32.20 31.41 30.35 28.54 28.87 30.42 27.23 26.59 25.57 24.58 24.37 24.29 23.91 23.37 24.11 24.88 25.59 24.82 23.67 23.87 24.96 23.80 23.22 22.97 22.79 22.32 21.14 23.87 26.40 26.66 27.21 27.67
38.54 38.62 37.39 37.81 37.64 37.92 37.61 36.84 36.30 34.37 33.75 32.53 31.56 31.21 30.02 28.37 27.76 26.02 24.63 24.58 24.84 24.28 23.61 23.50 23.21 22.47 23.54 24.89 25.66 25.02 25.62 26.64 23.09 22.99 23.01 23.31 22.79 21.97 21.36 20.42 19.46 20.45 24.29 25.57
37.61 38.08 38.91 37.88 37.08 36.04 36.31 35.86 33.58 32.08 31.80 30.67 30.82 29.52 28.61 26.25 24.36 23.27 23.88 24.41 24.10 23.14 22.52 22.99 22.51 21.80 23.87 24.81 24.46 23.69 24.53 24.22 23.35 22.89 22.90 23.88 21.88 21.11 21.03 20.17 19.37 19.34 20.39 22.26
36.33 37.22 37.92 36.41 35.77 35.42 35.35 34.89 32.66 31.44 30.78 29.80 28.43 27.00 25.35 24.30 23.42 22.97 23.40 24.37 23.84 22.21 22.38 22.68 22.30 22.80 23.95 23.85 22.62 22.57 23.35 27.23 25.21 22.13 21.37 20.75 20.40 20.18 19.62 18.92 18.70 18.86 18.77 19.18
34.99 33.72 34.75 34.08 34.37 34.32 34.69 34.63 33.57 31.72 30.44 28.48 25.90 25.10 24.27 23.38 23.08 22.34 21.71 22.82 23.04 22.64 23.49 23.83 23.18 24.27 23.86 22.79 22.96 22.12 21.61 22.05 24.30 20.57 19.68 19.46 19.61 19.51 18.78 18.61 18.34 18.42 18.72 20.24
37.42 36.88 37.59 37.46 35.62 33.99 33.06 32.67 32.21 30.76 28.56 27.13 25.50 24.57 24.22 24.14 21.74 20.81 21.03 21.94 22.20 22.23 23.40 23.61 23.74 23.63 23.27 23.58 22.80 21.87 21.25 20.30 19.79 18.68 18.84 18.82 20.30 18.97 18.28 18.00 18.06 17.80 18.25 18.85
36.55 36.47 36.51 36.14 35.84 34.33 32.77 31.11 30.10 29.29 28.40 27.16 25.18 22.79 22.58 21.88 21.61 20.99 21.46 21.27 20.94 21.17 22.69 24.71 27.38 25.40 25.20 25.16 22.04 20.79 19.49 18.54 17.91 17.54 17.58 19.84 17.43 17.62 17.77 17.39 17.46 17.41 17.15 16.92
33.83 34.16 34.46 33.77 34.23 32.79 30.15 30.19 30.31 28.88 27.74 25.26 23.52 22.38 20.81 20.70 21.30 20.90 20.93 19.38 20.94 22.56 23.30 23.26 23.12 22.89 21.92 23.22 21.94 18.94 18.13 17.56 16.75 16.36 16.23 17.66 16.34 16.97 16.44 17.00 16.71 15.90 15.91 16.22
32.27 33.09 32.96 32.47 30.90 31.24 30.91 30.71 29.12 26.80 26.04 25.66 24.01 22.08 20.72 19.97 20.72 21.10 20.60 19.84 21.27 23.47 23.54 24.42 22.28 21.95 21.21 20.17 18.55 17.75 17.30 16.54 16.02 15.19 14.82 14.99 15.09 14.93 15.06 14.83 14.44 14.86 15.08 15.83
31.74 31.70 30.89 30.63 29.68 28.65 29.66 29.58 27.76 25.81 23.90 22.59 21.96 21.58 20.85 19.72 19.96 20.09 20.93 20.97 22.57 25.78 21.78 21.37 21.90 23.85 21.90 20.40 17.43 16.76 16.20 15.62 15.17 14.74 14.32 14.43 13.87 13.54 13.29 13.32 13.13 13.94 15.11 14.66
31.76 31.61 30.71 29.91 28.64 26.60 26.52 25.86 25.31 24.71 23.06 22.54 21.85 21.64 21.29 20.56 21.42 20.78 19.09 21.76 21.59 24.23 20.95 21.51 26.22 24.66 22.15 16.24 16.03 15.52 14.73 14.41 14.09 13.72 13.52 13.20 13.38 12.66 12.23 12.32 13.76 14.41 13.06 13.20
30.97 30.46 28.08 27.11 26.94 25.70 22.44 21.62 22.67 22.34 21.69 21.33 21.06 21.54 21.24 19.69 19.33 21.04 23.18 24.99 26.74 22.66 20.67 21.74 23.47 23.20 19.39 15.03 14.78 14.06 13.81 13.53 12.70 11.81 12.42 16.70 12.31 12.10 12.13 12.18 12.00 12.82 12.80 13.59
27.76 28.19 27.14 26.63 25.57 22.83 21.32 20.90 20.32 19.95 19.71 19.39 19.53 19.65 19.89 20.14 20.32 19.00 19.82 21.81 24.68 18.82 17.11 23.20 22.81 20.11 14.76 14.19 14.30 13.49 12.88 12.17 11.05 12.95 13.14 11.94 12.11 11.33 11.27 11.38 11.57 12.71 15.56 15.24
27.77 28.36 27.12 26.25 24.13 23.35 22.63 23.29 20.66 20.11 19.70 17.66 17.05 17.71 18.52 19.75 20.43 16.89 16.99 18.23 16.34 18.11 13.89 14.28 15.66 15.23 14.43 14.13 14.26 12.91 12.74 12.37 12.26 11.49 13.96 12.65 11.47 10.37 10.41 10.92 11.61 12.35 12.89 13.00
24.04 25.57 23.43 22.60 23.50 23.60 22.61 21.92 20.59 20.10 20.14 18.96 15.93 16.11 16.54 16.52 17.61 16.29 16.93 13.29 13.29 12.98 12.55 12.54 12.78 15.12 14.72 14.63 12.96 12.73 11.98 11.46 12.81 13.30 12.87 9.97 9.64 9.24 9.92 10.71 11.09 11.73 12.46 13.04
MSLP
1008.85 1007.92 1007.38 1006.50 1005.70 1005.69 1005.73 1004.60 1005.31 1003.19 1003.55 1001.48 1002.25 1002.18 1002.05 1002.11 1002.23 1002.85 1003.47 1003.91 1004.43 1004.97 1005.59 1006.41 1007.26 1008.11 1009.03 1010.02 1011.19 1012.18 1013.15 1014.30 1015.33 1015.96 1016.57 1017.33 1018.12 1018.80 1019.22 1019.48 1019.81 1020.10 1020.20 1020.32
1007.22 1006.69 1005.72 1004.74 1003.83 1003.52 1003.63 1003.92 1004.05 1003.82 1002.77 1001.66 1001.55 1001.74 1001.78 1001.65 1001.86 1002.67 1003.38 1004.01 1004.79 1005.50 1006.08 1006.78 1007.57 1008.51 1009.49 1010.59 1011.62 1012.56 1013.60 1014.83 1015.75 1016.31 1017.02 1017.81 1018.54 1019.08 1019.39 1019.68 1019.98 1020.15 1020.27 1020.39
1006.10 1004.99 1003.86 1003.05 1002.26 1001.92 1001.83 1002.46 1002.70 1002.89 1001.31 1001.56 1001.12 1001.16 1001.45 1001.57 1001.87 1002.32 1003.08 1003.94 1004.88 1005.68 1006.48 1007.33 1008.12 1008.84 1009.92 1011.06 1012.10 1013.07 1014.15 1015.35 1016.08 1016.63 1017.35 1018.14 1018.78 1019.20 1019.53 1019.83 1020.10 1020.21 1020.30 1020.50
1006.19 1004.86 1003.17 1002.10 1001.63 1001.39 1001.16 1001.61 1002.22 1002.00 1001.48 1001.32 1001.16 1001.20 1001.26 1001.33 1001.26 1002.05 1002.93 1003.88 1004.95 1005.94 1007.00 1007.94 1008.70 1009.75 1010.61 1011.63 1012.67 1013.63 1014.82 1015.66 1016.30 1016.90 1017.69 1018.46 1018.95 1019.33 1019.69 1019.99 1020.12 1020.25 1020.46 1020.49
1006.28 1004.73 1002.78 1001.41 1001.28 1001.33 1001.16 1001.19 1001.26 1001.63 1001.47 1001.35 1001.50 1001.71 1001.59 1001.74 1001.63 1002.20 1002.92 1004.12 1005.14 1006.34 1007.44 1008.33 1009.34 1010.20 1011.03 1012.49 1013.39 1014.35 1015.23 1015.89 1016.59 1017.25 1018.00 1018.60 1019.09 1019.53 1019.87 1020.02 1020.23 1020.42 1020.49 1020.38
1006.09 1004.84 1003.31 1001.54 1000.88 1000.75 1000.99 1001.25 1000.98 1001.22 1001.61 1001.81 1002.02 1002.18 1002.74 1002.84 1002.65 1003.01 1003.79 1004.56 1005.53 1006.90 1008.01 1009.00 1010.13 1010.68 1011.75 1013.19 1014.07 1014.87 1015.59 1016.30 1017.02 1017.63 1018.14 1018.79 1019.29 1019.70 1020.06 1020.23 1020.36 1020.38 1020.29 1020.23
1005.66 1004.72 1002.80 1001.69 1000.95 1000.82 1001.22 1002.26 1001.29 1001.51 1002.09 1002.35 1003.03 1003.80 1003.85 1003.84 1004.02 1004.42 1004.83 1005.48 1006.48 1007.57 1008.65 1009.65 1010.46 1011.32 1012.70 1013.80 1014.70 1015.45 1016.07 1016.78 1017.48 1018.09 1018.64 1019.18 1019.58 1019.88 1020.25 1020.41 1020.37 1020.34 1020.13 1019.88
1004.99 1004.40 1002.90 1001.69 1001.25 1001.69 1002.23 1001.70 1001.81 1001.98 1001.98 1002.34 1003.17 1004.06 1004.30 1004.88 1005.14 1005.61 1006.00 1006.73 1007.55 1008.47 1009.61 1010.54 1011.26 1012.07 1013.45 1014.48 1015.43 1015.97 1016.63 1017.36 1018.07 1018.61 1018.97 1019.39 1019.77 1020.20 1020.41 1020.43 1020.34 1020.17 1019.94 1019.53
1004.26 1003.08 1001.86 1001.75 1001.93 1002.08 1002.37 1002.49 1002.53 1002.70 1002.81 1003.00 1003.91 1005.05 1005.61 1006.10 1006.59 1007.23 1007.47 1008.02 1008.74 1009.36 1010.54 1011.67 1012.31 1012.86 1014.02 1015.48 1015.92 1016.55 1017.22 1018.00 1018.51 1019.00 1019.48 1019.85 1020.07 1020.23 1020.35 1020.40 1020.30 1020.12 1019.82 1019.34
1003.84 1002.34 1001.87 1001.78 1002.14 1002.58 1002.94 1003.12 1003.20 1003.28 1003.63 1003.96 1004.87 1005.83 1006.41 1007.26 1008.14 1008.72 1008.85 1009.30 1009.95 1010.61 1011.68 1012.73 1013.45 1014.20 1014.95 1015.88 1016.53 1017.04 1017.80 1018.48 1019.02 1019.45 1019.92 1020.20 1020.30 1020.34 1020.37 1020.42 1020.24 1019.87 1019.43 1019.01
1003.45 1002.34 1002.11 1002.19 1002.69 1003.14 1003.69 1003.94 1003.91 1004.27 1004.62 1005.21 1005.61 1006.57 1007.40 1008.40 1009.14 1009.59 1009.84 1010.55 1011.10 1011.73 1012.76 1013.92 1014.67 1015.48 1016.13 1016.63 1017.06 1017.81 1018.48 1019.08 1019.56 1019.89 1020.13 1020.30 1020.39 1020.45 1020.39 1020.28 1020.04 1019.55 1019.26 1018.96
1002.59 1002.21 1002.55 1002.89 1003.34 1003.84 1004.24 1004.51 1004.70 1004.83 1005.68 1006.32 1006.66 1007.41 1008.34 1009.31 1009.90 1010.18 1010.87 1011.70 1012.38 1013.33 1014.09 1015.21 1015.79 1016.49 1017.06 1017.45 1017.71 1018.26 1019.07 1019.61 1019.93 1020.16 1020.36 1020.49 1020.53 1020.44 1020.23 1020.00 1019.74 1019.45 1019.13 1018.72
1002.42 1002.56 1002.91 1003.33 1003.80 1004.34 1004.93 1005.23 1005.61 1005.95 1006.52 1007.07 1008.01 1008.53 1009.27 1009.96 1010.76 1011.42 1012.20 1012.95 1013.72 1014.56 1015.35 1016.09 1016.79 1017.43 1017.96 1018.24 1018.54 1018.95 1019.39 1019.84 1020.16 1020.42 1020.58 1020.56 1020.45 1020.37 1020.08 1019.62 1019.55 1019.34 1019.03 1018.64
1002.57 1003.00 1003.63 1003.94 1004.34 1004.90 1005.41 1005.97 1006.24 1006.95 1007.66 1008.15 1008.68 1009.61 1010.12 1010.79 1011.86 1012.60 1013.48 1014.29 1014.89 1015.57 1016.41 1017.08 1017.74 1018.45 1018.88 1018.98 1019.17 1019.58 1019.84 1020.10 1020.43 1020.57 1020.56 1020.57 1020.58 1020.52 1020.43 1020.20 1019.73 1019.19 1018.73 1018.48
1003.00 1003.17 1003.41 1004.02 1004.87 1005.60 1006.17 1006.48 1007.14 1008.00 1008.73 1009.34 1009.93 1010.34 1011.11 1011.96 1013.00 1013.99 1014.71 1015.23 1015.87 1016.59 1017.44 1017.99 1018.56 1019.25 1019.43 1019.54 1019.79 1020.08 1020.20 1020.35 1020.58 1020.70 1020.74 1020.65 1020.73 1020.66 1020.53 1020.24 1019.86 1019.35 1018.81 1018.43
1003.63 1003.92 1004.28 1004.73 1005.57 1006.05 1006.49 1007.04 1007.64 1008.70 1009.39 1010.19 1010.83 1011.65 1012.42 1013.11 1014.04 1014.93 1015.65 1016.12 1016.43 1017.58 1018.24 1018.63 1019.14 1019.66 1019.83 1020.00 1020.26 1020.43 1020.50 1020.40 1020.61 1020.89 1020.97 1020.93 1020.89 1020.76 1020.54 1020.26 1019.86 1019.41 1018.96 1018.54
1003.74 1004.50 1004.77 1005.26 1005.85 1006.46 1006.99 1007.52 1008.15 1008.99 1009.90 1010.82 1011.87 1012.62 1013.27 1014.15 1015.09 1015.97 1016.70 1017.16 1017.61 1018.29 1018.78 1019.04 1019.51 1019.80 1020.02 1020.25 1020.45 1020.69 1020.85 1020.97 1020.92 1021.16 1021.17 1021.15 1021.03 1020.87 1020.62 1020.32 1019.98 1019.57 1019.04 1018.52
1003.11 1003.32 1004.01 1004.65 1005.55 1006.42 1007.51 1008.16 1008.84 1009.63 1010.52 1011.62 1012.56 1013.44 1014.21 1014.95 1015.88 1016.84 1017.49 1018.00 1018.48 1019.00 1019.36 1019.61 1019.82 1019.98 1020.20 1020.45 1020.68 1020.94 1021.11 1021.29 1021.36 1021.44 1021.41 1021.22 1020.97 1020.83 1020.66 1020.43 1020.07 1019.63 1019.02 1018.44
1003.51 1003.75 1004.21 1005.04 1005.88 1006.81 1007.82 1008.70 1009.55 1010.43 1011.43 1012.32 1013.17 1014.32 1015.06 1015.85 1016.57 1017.32 1017.92 1018.40 1018.85 1019.33 1019.98 1019.88 1019.97 1020.16 1020.43 1020.69 1021.03 1021.31 1021.50 1021.58 1021.59 1021.58 1021.47 1021.18 1021.06 1020.97 1020.79 1020.55 1020.11 1019.65 1019.15 1018.50
1004.24 1004.58 1005.02 1005.73 1006.52 1007.12 1008.23 1009.28 1010.07 1011.08 1012.05 1012.91 1013.91 1014.94 1015.88 1016.67 1017.15 1017.70 1018.25 1018.99 1019.34 1019.60 1019.91 1020.16 1020.36 1020.56 1020.84 1021.17 1021.43 1021.61 1021.72 1021.80 1021.80 1021.77 1021.69 1021.51 1021.38 1021.10 1020.87 1020.55 1020.18 1019.68 1019.24 1018.64
1004.86 1005.29 1005.80 1006.43 1007.33 1008.07 1008.70 1009.47 1010.30 1011.49 1012.68 1013.27 1014.01 1015.28 1016.23 1017.14 1017.68 1018.20 1018.73 1019.30 1020.00 1020.05 1020.18 1020.45 1020.69 1021.02 1021.33 1021.60 1021.73 1021.95 1022.07 1022.07 1022.01 1022.00 1021.90 1021.66 1021.39 1021.16 1020.88 1020.49 1020.12 1019.67 1019.17 1018.60
1005.19 1005.70 1006.43 1007.09 1007.85 1008.83 1009.59 1010.19 1010.87 1011.83 1013.02 1013.99 1014.90 1015.76 1016.63 1017.66 1018.27 1018.77 1019.15 1019.39 1019.93 1020.23 1020.62 1020.90 1021.05 1021.24 1021.55 1021.85 1022.07 1022.19 1022.20 1022.16 1022.14 1022.05 1021.89 1021.75 1021.55 1021.24 1020.87 1020.50 1020.03 1019.49 1018.96 1018.54
1005.99 1006.33 1006.98 1007.76 1008.50 1009.47 1010.45 1011.29 1011.90 1012.60 1013.54 1014.62 1015.46 1016.28 1017.06 1017.82 1018.33 1018.80 1019.69 1020.19 1020.22 1020.57 1020.92 1021.06 1021.19 1021.62 1021.94 1022.16 1022.25 1022.30 1022.33 1022.30 1022.20 1022.02 1021.88 1021.70 1021.45 1021.26 1020.92 1020.47 1019.87 1019.28 1018.77 1018.29
1006.67 1007.18 1007.86 1008.66 1009.42 1010.23 1011.26 1012.46 1012.96 1013.69 1014.40 1015.35 1016.13 1016.82 1017.29 1018.05 1018.97 1019.17 1019.48 1020.07 1020.42 1020.97 1021.26 1021.41 1021.66 1021.95 1022.21 1022.33 1022.40 1022.47 1022.44 1022.35 1022.19 1022.03 1021.84 1021.41 1021.29 1021.00 1020.66 1020.28 1019.77 1019.11 1018.48 1017.91
1007.57 1008.06 1008.60 1009.16 1009.91 1011.11 1011.99 1012.85 1013.90 1014.80 1015.51 1016.39 1017.07 1017.58 1017.95 1018.31 1018.67 1019.86 1020.12 1020.54 1021.03 1021.47 1021.71 1021.83 1022.01 1022.23 1022.35 1022.40 1022.43 1022.41 1022.35 1022.24 1021.99 1021.66 1021.41 1021.22 1020.97 1020.72 1020.31 1019.92 1019.38 1018.77 1017.97 1017.44
1008.25 1008.73 1009.36 1009.84 1010.46 1011.35 1012.28 1013.11 1014.19 1015.31 1016.02 1017.04 1017.99 1018.41 1018.80 1019.12 1019.62 1020.33 1020.81 1021.24 1021.57 1021.87 1022.23 1022.38 1022.39 1022.39 1022.43 1022.46 1022.44 1022.38 1022.25 1022.10 1021.79 1021.61 1021.32 1021.07 1020.73 1020.30 1019.90 1019.46 1018.88 1018.35 1017.72 1017.09
1009.11 1009.51 1010.12 1010.97 1011.62 1012.08 1012.76 1013.48 1014.25 1015.51 1016.42 1017.13 1018.10 1019.03 1019.44 1019.96 1020.47 1020.98 1021.34 1021.80 1022.11 1022.40 1022.59 1022.62 1022.57 1022.54 1022.54 1022.52 1022.52 1022.39 1022.20 1021.95 1021.76 1021.40 1020.97 1020.74 1020.41 1019.98 1019.53 1019.01 1018.48 1017.97 1017.33 1016.63
Wind_Speed
22 25 24 27 27 22 23 28 16 15 20 27 16 16 9 6 5 5 7 9 9 11 13 14 14 14 14 14 14 14 14 13 12 12 12 12 11 9 8 8 6 5 4 4
21 23 22 22 25 21 20 23 20 19 23 20 16 6 5 10 7 8 9 9 11 12 14 15 15 14 15 14 14 14 13 13 12 12 12 11 10 9 8 7 5 4 4 3
13 11 21 7 9 7 7 13 15 15 18 8 11 7 10 14 7 10 11 12 13 14 13 12 14 15 15 14 13 13 13 12 12 12 11 10 9 8 7 6 4 4 3 3
9 9 5 5 3 8 3 13 15 13 13 8 8 9 11 8 8 9 11 12 13 12 12 12 13 13 14 13 13 13 12 12 11 11 11 9 8 7 6 4 4 3 3 4
4 6 11 2 4 5 2 3 15 18 14 10 4 5 2 5 3 8 10 11 12 11 13 13 14 14 15 13 12 12 11 11 11 11 10 8 7 6 4 3 3 2 2 4
4 5 4 4 7 4 4 8 2 10 9 3 2 4 3 8 3 11 12 13 15 14 14 14 12 14 15 12 12 12 11 11 10 9 9 8 7 5 3 3 2 2 4 4
7 4 8 4 9 1 6 3 4 3 4 3 2 2 2 5 10 9 11 15 14 13 13 13 13 14 14 12 11 11 11 11 10 8 8 7 5 3 3 2 3 4 5 5
2 2 7 2 5 5 3 5 3 2 2 4 7 8 8 9 10 11 14 13 13 14 12 11 12 14 13 12 10 11 11 10 9 8 6 5 6 3 3 3 4 4 6 7
7 7 5 3 4 2 2 4 3 2 0 4 7 6 9 10 11 9 11 11 11 14 14 10 10 12 15 10 11 11 10 10 9 8 6 4 4 3 2 3 3 4 5 6
2 4 5 4 1 3 4 3 4 5 6 6 10 9 12 11 9 9 10 12 12 15 14 12 11 12 14 11 10 11 11 9 6 6 5 4 2 2 2 2 3 4 6 7
6 7 6 3 3 3 4 5 9 10 9 11 13 11 11 10 10 10 11 11 11 13 13 13 13 12 10 10 11 10 9 7 6 4 4 3 2 1 2 2 3 6 6 7
5 3 2 1 4 4 4 5 8 13 12 11 12 13 12 11 10 12 13 13 14 14 15 12 12 11 9 7 9 9 8 5 4 3 2 2 2 3 5 7 11 11 13 10
1 2 3 5 6 4 6 7 9 12 12 15 12 12 13 13 12 18 14 14 14 14 13 12 11 10 7 6 7 7 7 5 3 3 2 3 3 4 7 7 9 11 13 15
3 7 3 3 4 7 10 11 14 13 11 12 14 11 14 14 14 14 13 12 13 13 12 11 11 9 5 6 8 7 5 9 3 2 2 3 3 4 4 5 8 9 12 15
5 1 1 9 10 10 9 13 14 13 11 12 10 13 13 15 14 12 11 12 13 13 11 10 10 7 5 6 7 6 5 4 3 3 3 4 3 4 4 6 7 8 8 10
5 7 8 10 9 10 11 12 15 11 11 11 12 12 12 14 13 12 10 10 13 10 8 9 9 5 5 6 6 5 4 8 6 3 3 3 4 4 5 6 7 8 8 9
10 6 7 9 11 11 8 8 12 11 12 12 12 13 14 14 13 11 9 9 10 9 8 8 8 6 6 5 6 4 4 3 6 3 4 4 4 4 5 6 7 8 8 9
2 5 6 11 13 13 11 10 12 12 13 14 13 13 13 13 13 11 10 11 11 10 7 7 6 6 6 6 5 4 3 3 3 3 3 3 4 5 6 7 7 8 9 10
2 8 12 13 12 13 12 13 11 13 13 12 14 11 11 11 12 10 9 10 10 10 4 5 12 9 6 7 6 4 3 3 3 3 3 6 6 5 6 6 7 8 9 9
7 8 12 13 13 15 14 12 14 13 12 14 14 13 12 10 10 10 8 7 4 5 5 6 6 6 6 6 7 3 3 3 3 3 4 5 5 6 6 8 9 8 8 8
9 10 13 14 13 12 13 14 15 14 11 12 15 13 12 9 9 10 10 8 3 6 6 9 5 4 3 4 4 3 2 3 3 4 4 5 6 6 6 7 7 7 8 8
10 12 13 14 14 13 11 12 14 14 13 12 13 13 13 10 9 8 6 6 4 11 5 3 3 7 4 6 2 2 2 3 3 4 4 5 5 6 6 7 7 7 8 8
8 11 12 13 14 13 12 10 12 13 14 12 13 12 10 7 6 9 7 3 4 8 4 3 7 7 6 3 2 2 3 3 4 5 5 5 5 5 6 7 7 7 7 8
10 10 12 13 14 14 15 8 11 10 11 11 10 9 11 8 5 4 8 11 13 9 4 5 6 5 5 2 2 2 3 4 5 4 5 9 5 5 6 7 7 7 7 9
9 10 12 13 13 10 13 12 12 11 12 11 10 7 7 4 5 4 5 6 12 7 5 6 5 5 3 2 2 2 3 3 4 4 4 5 5 5 6 6 6 7 7 8
10 8 7 8 10 10 10 10 10 8 9 9 6 5 6 6 8 7 5 8 5 7 3 2 2 3 2 3 3 3 4 5 5 5 7 5 6 6 6 7 7 7 8 8
8 13 10 9 7 8 8 9 11 10 8 8 9 5 7 7 7 7 8 5 4 4 3 2 2 4 3 3 3 4 5 4 7 6 4 5 5 5 6 6 7 8 8 8
Wind_Direction
257 267 274 264 261 244 222 229 232 251 232 264 269 270 274 266 294 197 172 155 145 137 131 128 124 121 121 119 124 126 122 121 125 123 120 119 119 120 119 113 107 109 104 74
276 266 262 273 273 264 232 229 239 251 263 267 270 281 296 310 322 209 177 155 140 136 135 134 132 129 126 126 125 126 120 122 126 122 121 120 121 122 115 110 107 99 83 51
277 332 306 271 289 274 225 190 214 232 246 260 294 307 305 290 238 208 174 150 146 140 137 134 134 133 131 129 124 120 121 127 127 123 121 121 123 120 116 109 108 89 52 9
285 311 298 290 325 323 249 184 208 249 269 285 282 276 279 270 250 175 152 143 140 135 128 127 126 122 121 122 121 120 123 126 125 120 119 122 121 118 117 105 86 61 23 343
287 310 279 242 343 316 336 242 203 224 247 258 305 299 308 347 125 147 142 137 131 129 128 128 129 129 118 117 118 123 128 127 124 124 125 127 120 117 107 91 70 34 325 335
314 289 295 284 316 330 160 33 239 205 232 229 325 352 348 348 60 109 121 128 127 127 125 123 128 125 121 123 127 127 126 121 121 124 123 121 119 110 87 75 34 350 342 333
245 275 286 278 305 278 54 299 317 216 190 208 186 12 54 68 65 90 113 117 116 121 128 127 126 123 122 126 119 118 114 113 111 110 110 113 107 86 94 60 18 351 335 335
197 270 289 26 356 48 255 304 296 292 194 213 100 95 64 69 76 89 101 102 108 110 110 115 123 123 119 109 118 115 111 107 105 107 107 102 104 104 75 38 8 352 329 324
180 223 264 305 242 308 322 251 313 277 228 137 115 97 96 73 69 77 94 99 106 111 105 92 106 121 114 122 119 112 106 108 106 98 95 96 94 87 50 16 352 332 326 321
347 284 268 300 56 43 6 28 26 75 88 79 107 105 97 90 91 94 95 102 110 109 103 94 92 100 111 117 114 109 106 110 113 109 98 82 69 60 33 342 328 325 327 327
260 280 279 286 44 86 61 72 78 68 78 102 105 84 98 99 101 101 97 96 99 100 99 98 102 99 104 107 109 106 108 107 97 89 86 67 36 1 336 305 297 328 327 316
226 255 211 82 113 118 93 78 91 102 85 77 96 107 106 100 100 98 96 98 93 95 99 98 98 96 95 101 112 113 108 106 106 94 67 48 16 350 349 351 346 337 328 323
219 81 60 94 98 83 105 97 85 92 100 105 94 104 104 103 99 101 95 97 100 103 101 99 97 94 89 94 101 100 109 109 92 83 63 31 18 6 345 342 335 334 333 332
151 125 75 218 149 113 112 102 96 88 86 96 103 98 101 100 98 93 95 102 103 101 97 98 95 90 88 94 95 96 97 100 92 83 49 33 15 356 341 332 329 325 330 334
163 292 60 111 106 108 119 121 105 104 105 94 93 103 106 106 102 103 104 103 100 99 97 100 98 91 94 97 98 98 99 93 79 60 34 27 2 347 339 328 318 311 318 325
99 93 112 111 124 128 133 127 116 120 114 112 107 101 102 103 105 102 103 113 116 116 111 107 104 113 102 96 96 83 62 66 67 49 25 5 357 347 334 325 322 322 319 322
124 131 137 136 150 146 139 125 122 124 120 113 113 114 110 107 102 97 88 90 100 105 110 113 112 105 94 90 93 81 69 50 51 43 18 358 343 335 330 328 321 316 314 318
42 112 141 146 149 136 122 116 120 121 122 124 116 117 118 120 122 118 113 110 100 89 91 104 111 106 94 87 83 81 76 60 39 27 358 341 340 339 329 318 317 317 316 318
103 127 127 130 134 126 126 121 115 115 116 123 118 111 111 113 119 120 120 113 111 110 111 111 104 93 96 85 81 74 65 48 30 7 349 344 343 332 325 322 319 318 320 320
98 95 110 112 120 128 123 121 122 119 123 120 117 116 113 114 120 113 104 91 96 122 121 107 97 89 77 74 78 70 63 42 16 359 345 351 333 324 322 326 323 320 318 320
115 119 119 120 117 119 124 131 128 124 127 129 126 126 124 114 112 120 112 109 110 119 117 110 104 87 88 84 72 65 51 21 7 351 332 324 321 319 320 320 316 317 316 316
135 129 125 126 122 116 121 125 123 123 116 112 114 121 120 114 104 81 55 117 144 121 109 99 109 107 94 78 67 55 28 5 338 325 323 323 316 314 314 311 310 312 309 308
126 127 124 126 125 116 106 109 112 120 121 126 127 129 125 119 121 122 118 135 103 118 108 123 112 92 80 64 52 29 3 344 333 327 317 306 300 303 304 306 305 307 305 305
125 119 113 116 118 114 109 100 100 102 105 106 107 118 127 120 74 56 116 133 127 118 106 93 91 83 73 42 29 5 342 333 323 307 301 313 303 297 298 297 295 299 298 299
114 122 127 130 124 118 119 116 105 102 102 99 95 89 93 64 112 130 106 113 116 96 68 78 83 61 50 26 1 345 325 311 296 286 303 294 294 296 296 293 290 298 297 302
131 128 118 113 124 129 129 128 121 123 121 112 91 91 89 96 107 107 102 110 95 102 90 63 41 58 22 355 355 327 311 309 316 303 301 298 296 293 294 291 295 297 296 293
100 115 112 107 113 124 123 134 129 131 130 128 113 103 110 108 118 112 108 97 97 94 85 51 27 13 359 344 325 310 308 298 304 298 295 290 285 284 288 290 294 293 291 288